Time,TemperatureF,DewpointF,PressureIn,WindDirection,WindDirectionDegrees,WindSpeedMPH,WindSpeedGustMPH,Humidity,HourlyPrecipIn,Conditions,Clouds,dailyrainin,SoftwareType,DateUTC
2013-05-06 00:12:00,53.0,47.0,29.98,North,-999,-999.0,-999.0,81,-99.99,,,-99.99,,2013-05-06 05:12:00,
2013-05-06 00:22:00,53.0,47.0,29.98,North,-999,-999.0,-999.0,81,-99.99,,,-99.99,,2013-05-06 05:22:00,
2013-05-06 00:32:00,52.0,47.0,29.98,North,-999,-999.0,-999.0,82,-99.99,,,-99.99,,2013-05-06 05:32:00,
2013-05-06 00:42:00,52.0,47.0,29.98,North,-999,-999.0,-999.0,82,-99.99,,,-99.99,,2013-05-06 05:42:00,
2013-05-06 00:52:00,52.0,47.0,29.98,North,-999,-999.0,-999.0,82,-99.99,,,-99.99,,2013-05-06 05:52:00,
2013-05-06 01:02:00,52.0,46.0,29.98,North,-999,-999.0,-999.0,82,-99.99,,,-99.99,,2013-05-06 06:02:00,
2013-05-06 01:12:00,52.0,46.0,29.98,North,-999,-999.0,-999.0,82,-99.99,,,-99.99,,2013-05-06 06:12:00,
2013-05-06 01:21:00,52.0,46.0,29.98,North,-999,-999.0,-999.0,82,-99.99,,,-99.99,,2013-05-06 06:21:00,
2013-05-06 01:32:00,51.0,46.0,29.99,North,-999,-999.0,-999.0,83,-99.99,,,-99.99,,2013-05-06 06:32:00,
2013-05-06 01:42:00,51.0,47.0,29.99,North,-999,-999.0,-999.0,84,-99.99,,,-99.99,,2013-05-06 06:42:00,
2013-05-06 01:52:00,51.0,47.0,29.99,North,-999,-999.0,-999.0,84,-99.99,,,-99.99,,2013-05-06 06:52:00,
2013-05-06 02:00:00,51.0,47.0,29.96,North,-999,-999.0,-999.0,85,-99.99,,,-99.99,,2013-05-06 07:00:00,
2013-05-06 02:01:00,51.0,47.0,29.98,North,-999,-999.0,-999.0,84,-99.99,,,-99.99,,2013-05-06 07:01:00,
2013-05-06 02:11:00,51.0,47.0,29.98,North,-999,-999.0,-999.0,85,-99.99,,,-99.99,,2013-05-06 07:11:00,
2013-05-06 02:22:00,51.0,47.0,29.98,North,-999,-999.0,-999.0,85,-99.99,,,-99.99,,2013-05-06 07:22:00,
2013-05-06 02:31:00,51.0,47.0,29.97,North,-999,-999.0,-999.0,85,-99.99,,,-99.99,,2013-05-06 07:31:00,
2013-05-06 02:42:00,51.0,47.0,29.96,North,-999,-999.0,-999.0,85,-99.99,,,-99.99,,2013-05-06 07:42:00,
2013-05-06 02:52:00,51.0,47.0,29.96,North,-999,-999.0,-999.0,85,-99.99,,,-99.99,,2013-05-06 07:52:00,
2013-05-06 03:12:00,51.0,47.0,29.96,North,-999,-999.0,-999.0,86,-99.99,,,-99.99,,2013-05-06 08:12:00,
2013-05-06 03:22:00,51.0,47.0,29.96,North,-999,-999.0,-999.0,86,-99.99,,,-99.99,,2013-05-06 08:22:00,
2013-05-06 03:32:00,51.0,47.0,29.96,North,-999,-999.0,-999.0,86,-99.99,,,-99.99,,2013-05-06 08:32:00,
2013-05-06 03:42:00,51.0,47.0,29.96,North,-999,-999.0,-999.0,86,-99.99,,,-99.99,,2013-05-06 08:42:00,
2013-05-06 03:52:00,51.0,47.0,29.96,North,-999,-999.0,-999.0,86,-99.99,,,-99.99,,2013-05-06 08:52:00,
2013-05-06 04:00:00,51.0,48.0,29.96,North,-999,-999.0,-999.0,87,-99.99,,,-99.99,,2013-05-06 09:00:00,
2013-05-06 04:01:00,51.0,47.0,29.96,North,-999,-999.0,-999.0,86,-99.99,,,-99.99,,2013-05-06 09:01:00,
2013-05-06 04:11:00,51.0,47.0,29.96,North,-999,-999.0,-999.0,86,-99.99,,,-99.99,,2013-05-06 09:11:00,
2013-05-06 04:22:00,51.0,47.0,29.96,North,-999,-999.0,-999.0,86,-99.99,,,-99.99,,2013-05-06 09:22:00,
2013-05-06 04:33:00,51.0,47.0,29.96,North,-999,-999.0,-999.0,86,-99.99,,,-99.99,,2013-05-06 09:33:00,
2013-05-06 04:42:00,51.0,48.0,29.96,North,-999,-999.0,-999.0,87,-99.99,,,-99.99,,2013-05-06 09:42:00,
2013-05-06 04:53:00,51.0,48.0,29.96,North,-999,-999.0,-999.0,87,-99.99,,,-99.99,,2013-05-06 09:53:00,
2013-05-06 05:12:00,51.0,48.0,29.96,North,-999,-999.0,-999.0,87,-99.99,,,-99.99,,2013-05-06 10:12:00,
2013-05-06 05:22:00,51.0,48.0,29.96,North,-999,-999.0,-999.0,87,-99.99,,,-99.99,,2013-05-06 10:22:00,
2013-05-06 05:33:00,52.0,48.0,29.96,North,-999,-999.0,-999.0,88,-99.99,,,-99.99,,2013-05-06 10:33:00,
2013-05-06 05:42:00,52.0,48.0,29.96,North,-999,-999.0,-999.0,88,-99.99,,,-99.99,,2013-05-06 10:42:00,
2013-05-06 05:50:00,52.0,48.0,29.98,North,-999,-999.0,-999.0,88,-99.99,,,-99.99,,2013-05-06 10:50:00,
2013-05-06 05:52:00,52.0,48.0,29.96,North,-999,-999.0,-999.0,88,-99.99,,,-99.99,,2013-05-06 10:52:00,
2013-05-06 06:02:00,52.0,48.0,29.96,North,-999,-999.0,-999.0,88,-99.99,,,-99.99,,2013-05-06 11:02:00,
2013-05-06 06:12:00,52.0,48.0,29.97,North,-999,-999.0,-999.0,88,-99.99,,,-99.99,,2013-05-06 11:12:00,
2013-05-06 06:22:00,52.0,48.0,29.97,North,-999,-999.0,-999.0,88,-99.99,,,-99.99,,2013-05-06 11:22:00,
2013-05-06 06:31:00,52.0,48.0,29.98,North,-999,-999.0,-999.0,88,-99.99,,,-99.99,,2013-05-06 11:31:00,
2013-05-06 06:42:00,52.0,48.0,29.98,North,-999,-999.0,-999.0,88,-99.99,,,-99.99,,2013-05-06 11:42:00,
2013-05-06 08:42:00,51.0,48.0,30.01,North,-999,-999.0,-999.0,89,-99.99,,,-99.99,,2013-05-06 13:42:00,
2013-05-06 08:52:00,51.0,48.0,30.01,North,-999,-999.0,-999.0,89,-99.99,,,-99.99,,2013-05-06 13:52:00,
2013-05-06 09:01:00,51.0,48.0,30.02,North,-999,-999.0,-999.0,89,-99.99,,,-99.99,,2013-05-06 14:01:00,
2013-05-06 09:11:00,51.0,48.0,30.03,North,-999,-999.0,-999.0,89,-99.99,,,-99.99,,2013-05-06 14:11:00,
2013-05-06 09:21:00,51.0,48.0,30.03,North,-999,-999.0,-999.0,89,-99.99,,,-99.99,,2013-05-06 14:21:00,
2013-05-06 09:32:00,52.0,49.0,30.03,North,-999,-999.0,-999.0,90,-99.99,,,-99.99,,2013-05-06 14:32:00,
2013-05-06 09:42:00,52.0,49.0,30.03,North,-999,-999.0,-999.0,90,-99.99,,,-99.99,,2013-05-06 14:42:00,
2013-05-06 09:51:00,52.0,49.0,30.03,North,-999,-999.0,-999.0,90,-99.99,,,-99.99,,2013-05-06 14:51:00,
2013-05-06 10:01:00,52.0,49.0,30.03,North,-999,-999.0,-999.0,90,-99.99,,,-99.99,,2013-05-06 15:01:00,
2013-05-06 10:11:00,52.0,49.0,30.04,North,-999,-999.0,-999.0,90,-99.99,,,-99.99,,2013-05-06 15:11:00,
2013-05-06 10:21:00,52.0,49.0,30.04,North,-999,-999.0,-999.0,90,-99.99,,,-99.99,,2013-05-06 15:21:00,
2013-05-06 10:33:00,53.0,50.0,30.04,North,-999,-999.0,-999.0,90,-99.99,,,-99.99,,2013-05-06 15:33:00,
2013-05-06 10:42:00,53.0,50.0,30.04,North,-999,-999.0,-999.0,90,-99.99,,,-99.99,,2013-05-06 15:42:00,
2013-05-06 10:50:00,55.0,52.0,30.04,North,-999,-999.0,-999.0,90,-99.99,,,-99.99,,2013-05-06 15:50:00,
2013-05-06 10:53:00,53.0,50.0,30.04,North,-999,-999.0,-999.0,90,-99.99,,,-99.99,,2013-05-06 15:53:00,
2013-05-06 11:03:00,53.0,50.0,30.04,North,-999,-999.0,-999.0,90,-99.99,,,-99.99,,2013-05-06 16:03:00,
2013-05-06 11:13:00,53.0,50.0,30.05,North,-999,-999.0,-999.0,89,-99.99,,,-99.99,,2013-05-06 16:13:00,
2013-05-06 11:23:00,53.0,50.0,30.05,North,-999,-999.0,-999.0,89,-99.99,,,-99.99,,2013-05-06 16:23:00,
2013-05-06 11:30:00,57.0,52.0,30.04,North,-999,-999.0,-999.0,84,-99.99,,,-99.99,,2013-05-06 16:30:00,
2013-05-06 11:32:00,55.0,52.0,30.04,North,-999,-999.0,-999.0,90,-99.99,,,-99.99,,2013-05-06 16:32:00,
2013-05-06 11:42:00,55.0,52.0,30.04,North,-999,-999.0,-999.0,90,-99.99,,,-99.99,,2013-05-06 16:42:00,
2013-05-06 12:03:00,56.0,51.0,30.04,North,-999,-999.0,-999.0,85,-99.99,,,-99.99,,2013-05-06 17:03:00,
2013-05-06 12:12:00,56.0,51.0,30.04,North,-999,-999.0,-999.0,85,-99.99,,,-99.99,,2013-05-06 17:12:00,
2013-05-06 12:23:00,57.0,52.0,30.04,North,-999,-999.0,-999.0,84,-99.99,,,-99.99,,2013-05-06 17:23:00,
2013-05-06 12:30:00,61.0,52.0,30.03,North,-999,-999.0,-999.0,72,-99.99,,,-99.99,,2013-05-06 17:30:00,
2013-05-06 12:42:00,59.0,51.0,30.04,North,-999,-999.0,-999.0,75,-99.99,,,-99.99,,2013-05-06 17:42:00,
2013-05-06 12:52:00,59.0,51.0,30.04,North,-999,-999.0,-999.0,75,-99.99,,,-99.99,,2013-05-06 17:52:00,
2013-05-06 13:01:00,60.0,52.0,30.03,North,-999,-999.0,-999.0,75,-99.99,,,-99.99,,2013-05-06 18:01:00,
2013-05-06 13:12:00,60.0,52.0,30.03,North,-999,-999.0,-999.0,75,-99.99,,,-99.99,,2013-05-06 18:12:00,
2013-05-06 13:21:00,61.0,52.0,30.03,North,-999,-999.0,-999.0,72,-99.99,,,-99.99,,2013-05-06 18:21:00,
2013-05-06 13:43:00,64.0,51.0,30.02,North,-999,-999.0,-999.0,63,-99.99,,,-99.99,,2013-05-06 18:43:00,
2013-05-06 13:52:00,64.0,51.0,30.02,North,-999,-999.0,-999.0,63,-99.99,,,-99.99,,2013-05-06 18:52:00,
2013-05-06 14:01:00,65.0,49.0,30.02,North,-999,-999.0,-999.0,58,-99.99,,,-99.99,,2013-05-06 19:01:00,
2013-05-06 14:11:00,65.0,51.0,30.02,North,-999,-999.0,-999.0,61,-99.99,,,-99.99,,2013-05-06 19:11:00,
2013-05-06 14:22:00,65.0,51.0,30.02,North,-999,-999.0,-999.0,61,-99.99,,,-99.99,,2013-05-06 19:22:00,
2013-05-06 14:32:00,66.0,51.0,30.01,North,-999,-999.0,-999.0,59,-99.99,,,-99.99,,2013-05-06 19:32:00,
2013-05-06 14:41:00,66.0,52.0,30.01,North,-999,-999.0,-999.0,60,-99.99,,,-99.99,,2013-05-06 19:41:00,
2013-05-06 14:52:00,66.0,52.0,30.01,North,-999,-999.0,-999.0,60,-99.99,,,-99.99,,2013-05-06 19:52:00,
2013-05-06 15:00:00,66.0,53.0,30.01,North,-999,-999.0,-999.0,62,-99.99,,,-99.99,,2013-05-06 20:00:00,
2013-05-06 15:02:00,67.0,54.0,30.01,North,-999,-999.0,-999.0,63,-99.99,,,-99.99,,2013-05-06 20:02:00,
2013-05-06 15:11:00,67.0,51.0,30.01,North,-999,-999.0,-999.0,56,-99.99,,,-99.99,,2013-05-06 20:11:00,
2013-05-06 15:21:00,67.0,51.0,30.01,North,-999,-999.0,-999.0,56,-99.99,,,-99.99,,2013-05-06 20:21:00,
2013-05-06 15:32:00,67.0,52.0,30.01,North,-999,-999.0,-999.0,60,-99.99,,,-99.99,,2013-05-06 20:32:00,
2013-05-06 15:42:00,66.0,53.0,30.01,North,-999,-999.0,-999.0,62,-99.99,,,-99.99,,2013-05-06 20:42:00,
2013-05-06 15:52:00,66.0,53.0,30.01,North,-999,-999.0,-999.0,62,-99.99,,,-99.99,,2013-05-06 20:52:00,
2013-05-06 16:00:00,66.0,51.0,29.98,North,-999,-999.0,-999.0,59,-99.99,,,-99.99,,2013-05-06 21:00:00,
2013-05-06 16:11:00,67.0,52.0,30.00,North,-999,-999.0,-999.0,58,-99.99,,,-99.99,,2013-05-06 21:11:00,
2013-05-06 16:21:00,67.0,52.0,30.00,North,-999,-999.0,-999.0,58,-99.99,,,-99.99,,2013-05-06 21:21:00,
2013-05-06 16:32:00,66.0,51.0,29.99,North,-999,-999.0,-999.0,59,-99.99,,,-99.99,,2013-05-06 21:32:00,
2013-05-06 16:43:00,66.0,51.0,29.98,North,-999,-999.0,-999.0,59,-99.99,,,-99.99,,2013-05-06 21:43:00,
2013-05-06 16:53:00,66.0,51.0,29.98,North,-999,-999.0,-999.0,59,-99.99,,,-99.99,,2013-05-06 21:53:00,
2013-05-06 17:00:00,65.0,51.0,29.99,North,-999,-999.0,-999.0,59,-99.99,,,-99.99,,2013-05-06 22:00:00,
2013-05-06 17:12:00,65.0,51.0,29.98,North,-999,-999.0,-999.0,61,-99.99,,,-99.99,,2013-05-06 22:12:00,
2013-05-06 17:22:00,65.0,51.0,29.98,North,-999,-999.0,-999.0,61,-99.99,,,-99.99,,2013-05-06 22:22:00,
2013-05-06 17:33:00,65.0,51.0,29.98,North,-999,-999.0,-999.0,59,-99.99,,,-99.99,,2013-05-06 22:33:00,
2013-05-06 17:45:00,65.0,51.0,29.99,North,-999,-999.0,-999.0,59,-99.99,,,-99.99,,2013-05-06 22:45:00,
2013-05-06 17:52:00,65.0,51.0,29.99,North,-999,-999.0,-999.0,59,-99.99,,,-99.99,,2013-05-06 22:52:00,
2013-05-06 18:12:00,66.0,53.0,29.99,North,-999,-999.0,-999.0,63,-99.99,,,-99.99,,2013-05-06 23:12:00,
2013-05-06 18:20:00,68.0,53.0,29.98,North,-999,-999.0,-999.0,59,-99.99,,,-99.99,,2013-05-06 23:20:00,
2013-05-06 18:22:00,66.0,53.0,29.99,North,-999,-999.0,-999.0,63,-99.99,,,-99.99,,2013-05-06 23:22:00,
2013-05-06 18:32:00,68.0,52.0,29.98,North,-999,-999.0,-999.0,58,-99.99,,,-99.99,,2013-05-06 23:32:00,
2013-05-06 18:42:00,68.0,52.0,29.98,North,-999,-999.0,-999.0,57,-99.99,,,-99.99,,2013-05-06 23:42:00,
2013-05-06 18:52:00,68.0,52.0,29.98,North,-999,-999.0,-999.0,57,-99.99,,,-99.99,,2013-05-06 23:52:00,
2013-05-06 19:00:00,67.0,52.0,29.98,North,-999,-999.0,-999.0,59,-99.99,,,-99.99,,2013-05-07 00:00:00,
2013-05-06 19:01:00,68.0,53.0,29.98,North,-999,-999.0,-999.0,59,-99.99,,,-99.99,,2013-05-07 00:01:00,
2013-05-06 19:11:00,68.0,53.0,29.98,North,-999,-999.0,-999.0,59,-99.99,,,-99.99,,2013-05-07 00:11:00,
2013-05-06 19:32:00,67.0,51.0,29.98,North,-999,-999.0,-999.0,57,-99.99,,,-99.99,,2013-05-07 00:32:00,
2013-05-06 19:42:00,67.0,52.0,29.98,North,-999,-999.0,-999.0,59,-99.99,,,-99.99,,2013-05-07 00:42:00,
2013-05-06 19:51:00,67.0,52.0,29.98,North,-999,-999.0,-999.0,59,-99.99,,,-99.99,,2013-05-07 00:51:00,
2013-05-06 20:00:00,65.0,52.0,30.00,North,-999,-999.0,-999.0,63,-99.99,,,-99.99,,2013-05-07 01:00:00,
2013-05-06 20:11:00,65.0,52.0,29.99,North,-999,-999.0,-999.0,61,-99.99,,,-99.99,,2013-05-07 01:11:00,
2013-05-06 20:21:00,65.0,52.0,29.99,North,-999,-999.0,-999.0,61,-99.99,,,-99.99,,2013-05-07 01:21:00,
2013-05-06 20:32:00,65.0,52.0,29.99,North,-999,-999.0,-999.0,63,-99.99,,,-99.99,,2013-05-07 01:32:00,
2013-05-06 20:42:00,65.0,52.0,30.00,North,-999,-999.0,-999.0,63,-99.99,,,-99.99,,2013-05-07 01:42:00,
2013-05-06 20:52:00,65.0,52.0,30.00,North,-999,-999.0,-999.0,63,-99.99,,,-99.99,,2013-05-07 01:52:00,
2013-05-06 21:11:00,62.0,51.0,30.00,North,-999,-999.0,-999.0,66,-99.99,,,-99.99,,2013-05-07 02:11:00,
2013-05-06 21:21:00,62.0,51.0,30.00,North,-999,-999.0,-999.0,66,-99.99,,,-99.99,,2013-05-07 02:21:00,
2013-05-06 21:32:00,60.0,50.0,30.01,North,-999,-999.0,-999.0,70,-99.99,,,-99.99,,2013-05-07 02:32:00,
2013-05-06 21:42:00,60.0,50.0,30.01,North,-999,-999.0,-999.0,70,-99.99,,,-99.99,,2013-05-07 02:42:00,
2013-05-06 21:52:00,60.0,50.0,30.01,North,-999,-999.0,-999.0,70,-99.99,,,-99.99,,2013-05-07 02:52:00,
2013-05-06 22:01:00,60.0,51.0,30.02,North,-999,-999.0,-999.0,73,-99.99,,,-99.99,,2013-05-07 03:01:00,
2013-05-06 22:11:00,60.0,51.0,30.03,North,-999,-999.0,-999.0,74,-99.99,,,-99.99,,2013-05-07 03:11:00,
2013-05-06 22:22:00,60.0,51.0,30.03,North,-999,-999.0,-999.0,74,-99.99,,,-99.99,,2013-05-07 03:22:00,
2013-05-06 22:32:00,59.0,51.0,30.03,North,-999,-999.0,-999.0,74,-99.99,,,-99.99,,2013-05-07 03:32:00,
2013-05-06 22:42:00,58.0,51.0,30.04,North,-999,-999.0,-999.0,75,-99.99,,,-99.99,,2013-05-07 03:42:00,
2013-05-06 22:53:00,58.0,51.0,30.04,North,-999,-999.0,-999.0,75,-99.99,,,-99.99,,2013-05-07 03:53:00,
2013-05-06 23:03:00,58.0,51.0,30.05,North,-999,-999.0,-999.0,77,-99.99,,,-99.99,,2013-05-07 04:03:00,
2013-05-06 23:12:00,57.0,50.0,30.05,North,-999,-999.0,-999.0,78,-99.99,,,-99.99,,2013-05-07 04:12:00,
2013-05-06 23:23:00,57.0,50.0,30.05,North,-999,-999.0,-999.0,78,-99.99,,,-99.99,,2013-05-07 04:23:00,
2013-05-06 23:33:00,56.0,50.0,30.05,North,-999,-999.0,-999.0,80,-99.99,,,-99.99,,2013-05-07 04:33:00,
2013-05-06 23:42:00,56.0,50.0,30.05,North,-999,-999.0,-999.0,80,-99.99,,,-99.99,,2013-05-07 04:42:00,
2013-05-06 23:53:00,56.0,50.0,30.05,North,-999,-999.0,-999.0,80,-99.99,,,-99.99,,2013-05-07 04:53:00,